When you browse on this site, cookies collect data to enhance your experience and personalize the content and advertising you see.
Visit our Privacy Policy to learn more. By continuing to use the site, you agree to this use of cookies and data.

Hourly Weather Zastavche

Today, 12 July, Sunday

Time Temperature Precipitation Wind Pressure Humidity
00:00 +14°C° 0 mm 6 mps 738 mmHg 93%
01:00 +14°C° 0 mm 6 mps 738 mmHg 92%
02:00 +13°C° 0 mm 6 mps 739 mmHg 91%
03:00 +13°C° 0.2 mm 5 mps 738 mmHg 92%
04:00 +12°C° 0.2 mm 5 mps 738 mmHg 93%
05:00 +12°C° 0.2 mm 4 mps 738 mmHg 95%
06:00 +12°C° 0.2 mm 5 mps 738 mmHg 95%
07:00 +12°C° 0.2 mm 5 mps 739 mmHg 95%
08:00 +12°C° 0.2 mm 5 mps 739 mmHg 95%
09:00 +12°C° 0.1 mm 5 mps 739 mmHg 94%
10:00 +12°C° 0.1 mm 5 mps 739 mmHg 93%
11:00 +12°C° 0.1 mm 5 mps 740 mmHg 92%
12:00 +12°C° 0.5 mm 5 mps 740 mmHg 92%
13:00 +12°C° 0.5 mm 5 mps 741 mmHg 93%
14:00 +12°C° 0.5 mm 5 mps 741 mmHg 93%
15:00 +12°C° 0.1 mm 4 mps 741 mmHg 92%
16:00 +12°C° 0.1 mm 4 mps 741 mmHg 90%
17:00 +13°C° 0.1 mm 4 mps 741 mmHg 89%
18:00 +12°C° 0 mm 3 mps 741 mmHg 90%
19:00 +13°C° 0 mm 2 mps 741 mmHg 90%
20:00 +12°C° 0 mm 2 mps 741 mmHg 91%
21:00 +10°C° 0 mm 2 mps 741 mmHg 92%
22:00 +10°C° 0 mm 2 mps 741 mmHg 94%
23:00 +9°C° 0 mm 2 mps 741 mmHg 95%

Tomorrow, 13 July, Monday

Time Temperature Precipitation Wind Pressure Humidity
00:00 +9°C° 0 mm 2 mps 741 mmHg 95%
01:00 +9°C° 0 mm 3 mps 741 mmHg 96%
02:00 +9°C° 0 mm 3 mps 741 mmHg 96%
03:00 +9°C° 0 mm 3 mps 741 mmHg 96%
04:00 +9°C° 0 mm 3 mps 741 mmHg 96%
05:00 +9°C° 0 mm 3 mps 741 mmHg 96%
06:00 +10°C° 0 mm 3 mps 741 mmHg 92%
07:00 +12°C° 0 mm 4 mps 741 mmHg 89%
08:00 +13°C° 0 mm 4 mps 741 mmHg 85%
09:00 +14°C° 0.2 mm 5 mps 741 mmHg 82%
10:00 +16°C° 0.2 mm 5 mps 740 mmHg 78%
11:00 +17°C° 0.2 mm 5 mps 740 mmHg 74%
12:00 +17°C° 0.2 mm 5 mps 740 mmHg 72%
13:00 +17°C° 0.2 mm 5 mps 740 mmHg 70%
14:00 +19°C° 0.2 mm 5 mps 740 mmHg 67%
15:00 +19°C° 0.1 mm 5 mps 740 mmHg 69%
16:00 +17°C° 0.1 mm 5 mps 739 mmHg 71%
17:00 +18°C° 0.1 mm 4 mps 739 mmHg 73%
18:00 +17°C° 0.1 mm 4 mps 739 mmHg 78%
19:00 +16°C° 0.1 mm 3 mps 739 mmHg 83%
20:00 +15°C° 0.1 mm 2 mps 739 mmHg 87%
21:00 +14°C° 0 mm 2 mps 739 mmHg 89%
22:00 +13°C° 0 mm 2 mps 739 mmHg 91%
23:00 +12°C° 0 mm 2 mps 739 mmHg 92%

Day after tomorrow, 14 July, Tuesday

Time Temperature Precipitation Wind Pressure Humidity
00:00 +12°C° 0 mm 2 mps 739 mmHg 93%
01:00 +10°C° 0 mm 2 mps 739 mmHg 94%
02:00 +10°C° 0 mm 2 mps 739 mmHg 95%
03:00 +10°C° 0 mm 2 mps 739 mmHg 95%
04:00 +9°C° 0 mm 2 mps 739 mmHg 96%
05:00 +9°C° 0 mm 2 mps 739 mmHg 96%
06:00 +11°C° 0 mm 3 mps 739 mmHg 94%
07:00 +12°C° 0 mm 3 mps 739 mmHg 91%
08:00 +14°C° 0 mm 3 mps 739 mmHg 89%
09:00 +15°C° 0.1 mm 4 mps 739 mmHg 84%
10:00 +17°C° 0.1 mm 4 mps 739 mmHg 80%
11:00 +19°C° 0.1 mm 4 mps 738 mmHg 75%
12:00 +19°C° 0.1 mm 4 mps 738 mmHg 73%
13:00 +20°C° 0.1 mm 4 mps 738 mmHg 70%
14:00 +21°C° 0.1 mm 4 mps 738 mmHg 68%
15:00 +21°C° 0.1 mm 4 mps 738 mmHg 69%
16:00 +20°C° 0.1 mm 3 mps 737 mmHg 70%
17:00 +20°C° 0.1 mm 3 mps 737 mmHg 71%
18:00 +19°C° 0.1 mm 3 mps 737 mmHg 76%
19:00 +18°C° 0.1 mm 2 mps 738 mmHg 81%
20:00 +16°C° 0.1 mm 1 mps 738 mmHg 86%
21:00 +15°C° 0 mm 1 mps 738 mmHg 88%
22:00 +15°C° 0 mm 1 mps 738 mmHg 89%
23:00 +14°C° 0 mm 1 mps 738 mmHg 90%

15 July, Wednesday

Time Temperature Precipitation Wind Pressure Humidity
00:00 +13°C° 0 mm 1 mps 738 mmHg 90%
01:00 +13°C° 0 mm 1 mps 738 mmHg 91%
02:00 +13°C° 0 mm 1 mps 738 mmHg 91%
03:00 +11°C° 0 mm 0 mps 738 mmHg 91%
04:00 +11°C° 0 mm 0 mps 738 mmHg 92%
05:00 +11°C° 0 mm 0 mps 737 mmHg 92%
06:00 +13°C° 0 mm 0 mps 738 mmHg 88%
07:00 +15°C° 0 mm 0 mps 738 mmHg 84%
08:00 +16°C° 0 mm 0 mps 738 mmHg 81%
09:00 +18°C° 0 mm 0 mps 738 mmHg 75%
10:00 +19°C° 0 mm 0 mps 738 mmHg 70%
11:00 +21°C° 0 mm 0 mps 737 mmHg 65%
12:00 +21°C° 0 mm 0 mps 737 mmHg 61%
13:00 +22°C° 0 mm 0 mps 737 mmHg 58%
14:00 +23°C° 0 mm 0 mps 737 mmHg 55%
15:00 +23°C° 0.1 mm 0 mps 737 mmHg 55%
16:00 +22°C° 0.1 mm 0 mps 736 mmHg 55%
17:00 +22°C° 0.1 mm 0 mps 736 mmHg 55%
18:00 +23°C° 0 mm 1 mps 736 mmHg 61%
19:00 +21°C° 0 mm 1 mps 736 mmHg 68%
20:00 +20°C° 0 mm 1 mps 736 mmHg 74%
21:00 +19°C° 0 mm 1 mps 736 mmHg 77%
22:00 +18°C° 0 mm 1 mps 736 mmHg 79%
23:00 +16°C° 0 mm 1 mps 736 mmHg 82%

16 July, Thursday

Time Temperature Precipitation Wind Pressure Humidity
00:00 +16°C° 0.1 mm 1 mps 736 mmHg 84%
01:00 +16°C° 0.1 mm 1 mps 735 mmHg 85%
02:00 +15°C° 0.1 mm 1 mps 735 mmHg 87%
03:00 +15°C° 0 mm 1 mps 735 mmHg 88%
04:00 +15°C° 0 mm 1 mps 735 mmHg 89%
05:00 +14°C° 0 mm 1 mps 734 mmHg 90%
06:00 +16°C° 0 mm 1 mps 735 mmHg 86%
07:00 +19°C° 0 mm 1 mps 735 mmHg 83%
08:00 +19°C° 0 mm 2 mps 735 mmHg 79%
09:00 +20°C° 0 mm 2 mps 735 mmHg 74%
10:00 +23°C° 0 mm 2 mps 734 mmHg 70%
11:00 +24°C° 0 mm 2 mps 734 mmHg 65%
12:00 +24°C° 0.3 mm 2 mps 734 mmHg 65%
13:00 +24°C° 0.3 mm 3 mps 734 mmHg 65%
14:00 +24°C° 0.3 mm 3 mps 734 mmHg 65%
15:00 +22°C° 0.6 mm 3 mps 734 mmHg 72%
16:00 +21°C° 0.6 mm 3 mps 733 mmHg 79%
17:00 +20°C° 0.6 mm 3 mps 733 mmHg 86%
18:00 +19°C° 0.1 mm 2 mps 733 mmHg 88%
19:00 +18°C° 0.1 mm 2 mps 733 mmHg 90%
20:00 +18°C° 0.1 mm 1 mps 733 mmHg 92%
21:00 +17°C° 0.2 mm 2 mps 733 mmHg 93%
22:00 +16°C° 0.2 mm 2 mps 733 mmHg 94%
23:00 +16°C° 0.2 mm 3 mps 733 mmHg 95%

17 July, Friday

Time Temperature Precipitation Wind Pressure Humidity
00:00 +16°C° 0.3 mm 3 mps 733 mmHg 96%
01:00 +14°C° 0.3 mm 3 mps 733 mmHg 96%
02:00 +14°C° 0.3 mm 3 mps 733 mmHg 96%
03:00 +14°C° 0.3 mm 3 mps 733 mmHg 96%
04:00 +13°C° 0.3 mm 3 mps 733 mmHg 96%
05:00 +13°C° 0.3 mm 3 mps 733 mmHg 97%
06:00 +13°C° 0.8 mm 3 mps 733 mmHg 96%
07:00 +13°C° 0.8 mm 3 mps 734 mmHg 95%
08:00 +13°C° 0.8 mm 4 mps 734 mmHg 95%
09:00 +15°C° 0.1 mm 4 mps 734 mmHg 88%
10:00 +17°C° 0.1 mm 4 mps 734 mmHg 82%
11:00 +18°C° 0.1 mm 4 mps 734 mmHg 76%
12:00 +19°C° 0.2 mm 4 mps 734 mmHg 74%
13:00 +20°C° 0.2 mm 4 mps 734 mmHg 71%
14:00 +20°C° 0.2 mm 4 mps 733 mmHg 69%
15:00 +20°C° 0.3 mm 4 mps 733 mmHg 71%
16:00 +20°C° 0.3 mm 4 mps 733 mmHg 72%
17:00 +20°C° 0.3 mm 4 mps 733 mmHg 74%
18:00 +18°C° 0.3 mm 3 mps 733 mmHg 79%
19:00 +17°C° 0.3 mm 3 mps 733 mmHg 85%
20:00 +16°C° 0.3 mm 2 mps 733 mmHg 90%
21:00 +15°C° 0 mm 2 mps 733 mmHg 91%
22:00 +14°C° 0 mm 2 mps 734 mmHg 93%
23:00 +13°C° 0 mm 3 mps 734 mmHg 94%
Show more